Effingham, IL

5:44 AM CDT on April 27, 2017 (GMT -0500)
Effingham

Weather History for K1H2 - January, 2013

Change the Weather History Date:

Wednesday, January 30, 2013

  Actual Average (KMTO) Record (KMTO)
Temperature  
Mean Temperature 40 °F -  
Max Temperature 52 °F 35 °F 57 °F (1953)
Min Temperature 27 °F 19 °F -11 °F (1966)
Degree Days  
Heating Degree Days 25    
Moisture  
Dew Point 37 °F    
Average Humidity 84    
Maximum Humidity 97    
Minimum Humidity 63    
Precipitation  
Precipitation 0.34 in - - ()
Sea Level Pressure  
Sea Level Pressure 29.51 in    
Wind  
Wind Speed 12 mph (WSW)    
Max Wind Speed 30 mph    
Max Gust Speed 46 mph    
Visibility 9 miles    
Events Rain , Snow    
Averages and records for this station are not official NWS values.
T = Trace of Precipitation, MM = Missing Value Source: NWS Daily Summary

Daily Weather History Graph

Daily Weather History Graph

Search for Another Location

Airport or City:

Trip Planner

Search our weather history database for the weather conditions in past years. The results will help you decide how hot, cold, wet, or windy it might be!

Date:

Astronomy

Jan. 30, 2013 Rise Set
Actual Time 7:02 AM CST 5:13 PM CST
Civil Twilight 6:33 AM CST 5:41 PM CST
Nautical Twilight 6:01 AM CST 6:13 PM CST
Astronomical Twilight 5:30 AM CST 6:45 PM CST
Moon 9:09 PM CST (1/30) 8:32 AM CST (1/30)
Length of Visible Light 11h 07m
Length of Day
10h 11m
Waning Gibbous, 87% of the Moon is Illuminated
Jan 30
Waning Gibbous
Feb 3
Last Quarter
Feb 10
New
Feb 17
First Quarter
Feb 25
Full

Hourly Weather History & Observations

Time (CST) Temp. Windchill Dew Point Humidity Pressure Visibility Wind Dir Wind Speed Gust Speed Precip Events Conditions
12:15 AM 52.7 °F - 51.4 °F 95% 29.47 in 5.0 mi Calm Calm - 0.05 in Rain Heavy Rain
12:35 AM 52.3 °F - 51.3 °F 96% 29.47 in 7.0 mi Calm Calm - 0.09 in Rain Rain
12:55 AM 52.2 °F - 51.3 °F 97% 29.45 in 10.0 mi Calm Calm - 0.11 in Rain Rain
1:15 AM 51.8 °F - 50.9 °F 97% 29.47 in 10.0 mi SSE 4.6 mph - 0.01 in Rain Light Rain
1:35 AM 51.8 °F - 50.9 °F 97% 29.47 in 7.0 mi SSE 5.8 mph - 0.02 in Rain Rain
1:55 AM 51.8 °F - 50.9 °F 97% 29.48 in 7.0 mi SSE 3.5 mph - 0.05 in Rain Rain
2:15 AM 51.3 °F - 50.4 °F 97% 29.46 in 5.0 mi ESE 6.9 mph - 0.02 in Rain Rain
2:35 AM 51.8 °F - 50.9 °F 97% 29.48 in 7.0 mi SE 8.1 mph - 0.05 in Rain Rain
2:55 AM 51.6 °F - 50.7 °F 97% 29.44 in 7.0 mi SE 10.4 mph - 0.07 in Rain Light Rain
3:15 AM 51.8 °F - 50.0 °F 94% 29.42 in 10.0 mi SE 8.1 mph - N/A Rain Rain
3:35 AM 51.3 °F - 50.4 °F 97% 29.43 in 7.0 mi South 5.8 mph - N/A Rain Light Rain
3:55 AM 51.4 °F - 50.5 °F 97% 29.42 in 7.0 mi SSE 8.1 mph - N/A Rain Rain
4:15 AM 51.3 °F - 50.4 °F 97% 29.42 in 10.0 mi SSE 9.2 mph - N/A   Overcast
4:35 AM 51.3 °F - 50.4 °F 97% 29.41 in 10.0 mi SSE 11.5 mph 16.1 mph N/A   Overcast
4:55 AM 51.1 °F - 50.2 °F 97% 29.37 in 10.0 mi SSE 12.7 mph - N/A   Overcast
5:15 AM 51.1 °F - 50.2 °F 97% 29.38 in 10.0 mi SSE 13.8 mph 17.3 mph N/A   Overcast
5:35 AM 51.1 °F - 50.2 °F 97% 29.38 in 10.0 mi South 9.2 mph - N/A   Overcast
5:55 AM 51.8 °F - 50.0 °F 94% 29.40 in 10.0 mi South 11.5 mph 16.1 mph N/A   Overcast
6:15 AM 51.1 °F - 50.2 °F 97% 29.40 in 10.0 mi South 12.7 mph 17.3 mph N/A   Overcast
6:35 AM 51.1 °F - 50.2 °F 97% 29.41 in 10.0 mi South 15.0 mph 19.6 mph N/A   Overcast
6:55 AM 51.1 °F - 50.0 °F 96% 29.42 in 10.0 mi South 13.8 mph 17.3 mph N/A   Overcast
7:15 AM 50.9 °F - 49.6 °F 95% 29.39 in 10.0 mi South 11.5 mph 18.4 mph N/A   Overcast
7:35 AM 51.1 °F - 49.6 °F 95% 29.41 in 10.0 mi South 9.2 mph 18.4 mph N/A   Overcast
7:55 AM 51.1 °F - 49.6 °F 95% 29.39 in 10.0 mi SSW 10.4 mph 17.3 mph N/A   Overcast
8:15 AM 51.3 °F - 49.6 °F 94% 29.39 in 10.0 mi SSW 12.7 mph - N/A   Overcast
8:35 AM 51.3 °F - 49.5 °F 94% 29.40 in 10.0 mi SSW 16.1 mph 21.9 mph N/A   Overcast
8:55 AM 51.4 °F - 49.3 °F 92% 29.38 in 10.0 mi SSW 13.8 mph - N/A   Overcast
9:15 AM 52.0 °F - 49.6 °F 92% 29.38 in 10.0 mi SSW 12.7 mph - N/A   Overcast
9:35 AM 52.0 °F - 49.5 °F 91% 29.38 in 10.0 mi SSW 15.0 mph 18.4 mph N/A   Overcast
9:55 AM 52.7 °F - 49.1 °F 88% 29.37 in 10.0 mi South 10.4 mph 18.4 mph N/A   Overcast
10:15 AM 52.3 °F - 48.9 °F 88% 29.37 in 7.0 mi SW 15.0 mph 26.5 mph 0.03 in Rain Heavy Rain
10:35 AM 44.8 °F 36.9 °F 42.3 °F 91% 29.39 in 4.0 mi West 19.6 mph 27.6 mph 0.10 in Rain Light Rain
10:55 AM 44.6 °F 37.2 °F 41.4 °F 88% 29.40 in 4.0 mi West 17.3 mph 27.6 mph 0.10 in Rain Light Rain
11:15 AM 43.9 °F 37.5 °F 40.8 °F 89% 29.39 in 4.0 mi West 12.7 mph 25.3 mph 0.01 in Rain Light Rain
11:35 AM 43.9 °F 35.9 °F 39.9 °F 86% 29.39 in 10.0 mi West 18.4 mph 27.6 mph 0.01 in   Overcast
11:55 AM 43.3 °F 35.0 °F 37.8 °F 81% 29.39 in 10.0 mi West 19.6 mph 24.2 mph 0.01 in   Overcast
12:15 PM 43.3 °F 34.7 °F 36.7 °F 77% 29.39 in 10.0 mi West 20.7 mph 24.2 mph N/A   Overcast
12:35 PM 43.2 °F 35.0 °F 35.8 °F 75% 29.42 in 10.0 mi West 18.4 mph 27.6 mph N/A   Overcast
12:55 PM 43.0 °F 33.5 °F 35.6 °F 75% 29.40 in 10.0 mi West 24.2 mph 29.9 mph N/A Rain Light Rain
1:15 PM 42.1 °F 33.3 °F 34.3 °F 74% 29.40 in 10.0 mi West 19.6 mph 33.4 mph N/A Rain Light Rain
1:35 PM 42.1 °F 33.9 °F 33.6 °F 72% 29.40 in 10.0 mi West 17.3 mph 33.4 mph N/A   Overcast
1:55 PM 42.1 °F 32.1 °F 33.3 °F 71% 29.42 in 10.0 mi West 25.3 mph 33.4 mph N/A   Overcast
2:15 PM 40.6 °F 30.4 °F 32.4 °F 72% 29.43 in 10.0 mi West 24.2 mph 38.0 mph N/A   Overcast
2:35 PM 38.3 °F 26.8 °F 31.8 °F 77% 29.45 in 10.0 mi West 26.5 mph 35.7 mph N/A   Overcast
2:55 PM 36.7 °F 24.4 °F 31.8 °F 83% 29.47 in 10.0 mi West 27.6 mph 42.6 mph N/A   Overcast
3:15 PM 34.9 °F 22.0 °F 30.4 °F 84% 29.50 in 10.0 mi West 27.6 mph 35.7 mph N/A   Overcast
3:35 PM 33.8 °F 20.1 °F 29.1 °F 83% 29.51 in - West 29.9 mph 39.1 mph N/A   Overcast
3:55 PM 33.4 °F 20.1 °F 28.8 °F 83% 29.52 in 10.0 mi West 27.6 mph 38.0 mph N/A   Overcast
4:15 PM 33.3 °F 21.2 °F 28.4 °F 82% 29.54 in 10.0 mi West 21.9 mph 33.4 mph N/A   Overcast
4:35 PM 32.5 °F 19.9 °F 26.8 °F 79% 29.56 in 10.0 mi WNW 23.0 mph 26.5 mph N/A   Overcast
4:55 PM 32.2 °F 18.1 °F 26.4 °F 79% 29.58 in 10.0 mi West 28.8 mph 36.8 mph N/A   Overcast
5:15 PM 31.8 °F 19.3 °F 24.6 °F 75% 29.60 in 10.0 mi West 21.9 mph 36.8 mph N/A   Overcast
5:35 PM 31.3 °F 18.5 °F 23.9 °F 74% 29.60 in 10.0 mi West 21.9 mph 35.7 mph N/A   Overcast
5:55 PM 31.1 °F 18.9 °F 24.6 °F 77% 29.62 in 10.0 mi West 19.6 mph 32.2 mph N/A   Overcast
6:15 PM 31.1 °F 18.9 °F 24.8 °F 77% 29.62 in 10.0 mi WNW 19.6 mph 25.3 mph N/A   Overcast
6:35 PM 30.6 °F 17.6 °F 23.9 °F 76% 29.64 in 10.0 mi WNW 21.9 mph 29.9 mph N/A   Overcast
6:55 PM 30.2 °F 16.8 °F 23.0 °F 75% 29.65 in 10.0 mi West 23.0 mph 34.5 mph N/A   Overcast
7:15 PM 29.7 °F 16.4 °F 22.8 °F 76% 29.67 in 10.0 mi WNW 21.9 mph 29.9 mph N/A   Overcast
7:35 PM 29.3 °F 15.3 °F 21.7 °F 73% 29.68 in 10.0 mi West 24.2 mph 35.7 mph N/A   Overcast
7:55 PM 29.3 °F 16.6 °F 21.9 °F 74% 29.70 in 10.0 mi WNW 19.6 mph 28.8 mph N/A   Overcast
8:15 PM 29.3 °F 14.5 °F 21.2 °F 72% 29.71 in 10.0 mi West 27.6 mph 35.7 mph N/A   Overcast
8:35 PM 29.1 °F 16.4 °F 20.3 °F 70% 29.73 in 10.0 mi West 19.6 mph 35.7 mph N/A   Overcast
8:55 PM 29.1 °F 16.4 °F 18.7 °F 65% 29.75 in 10.0 mi WNW 19.6 mph 46.0 mph N/A   Overcast
9:15 PM 28.9 °F 14.5 °F 18.0 °F 64% 29.76 in 10.0 mi WNW 25.3 mph 32.2 mph N/A   Overcast
9:35 PM 28.8 °F 15.2 °F 19.4 °F 68% 29.77 in 10.0 mi WNW 21.9 mph 29.9 mph N/A Snow Light Snow
9:55 PM 28.4 °F 14.4 °F 17.6 °F 64% 29.78 in 10.0 mi West 23.0 mph 34.5 mph N/A   Overcast
10:15 PM 28.4 °F 14.4 °F 18.3 °F 66% 29.79 in 10.0 mi West 23.0 mph 32.2 mph N/A   Overcast
10:35 PM 28.2 °F 15.5 °F 17.1 °F 63% 29.80 in 10.0 mi WNW 18.4 mph 32.2 mph N/A   Overcast
10:55 PM 28.4 °F 13.8 °F 17.8 °F 64% 29.81 in 10.0 mi West 25.3 mph 31.1 mph N/A   Overcast
11:15 PM 28.0 °F 13.9 °F 18.3 °F 67% 29.82 in 10.0 mi West 23.0 mph 34.5 mph N/A Snow Light Snow
11:35 PM 28.0 °F 16.1 °F 18.1 °F 66% 29.83 in 10.0 mi West 16.1 mph 29.9 mph N/A   Overcast
11:55 PM 27.9 °F 12.8 °F 17.2 °F 64% 29.83 in 10.0 mi West 26.5 mph 35.7 mph N/A   Overcast